QPF
0.02 0.05 0.13 0.15 0.10 0.07 0.04 0.05 0.06 0.07 0.10 0.09 0.08 0.06 0.05 0.04 0.03 0.03 0.04 0.07 0.06 0.06 0.06 0.05 0.04 0.06 0.07 0.08 0.08 0.08 0.07 0.05 0.05 0.06 0.07 0.07 0.06 0.06 0.06 0.06 0.06 0.06 0.06
0.02 0.03 0.06 0.06 0.06 0.04 0.05 0.06 0.06 0.07 0.10 0.12 0.09 0.06 0.05 0.06 0.04 0.03 0.04 0.05 0.05 0.05 0.06 0.06 0.05 0.07 0.07 0.07 0.08 0.07 0.06 0.05 0.04 0.05 0.06 0.09 0.09 0.08 0.06 0.05 0.07 0.06 0.10
0.02 0.04 0.07 0.08 0.05 0.04 0.06 0.05 0.05 0.06 0.08 0.11 0.10 0.07 0.07 0.07 0.05 0.05 0.05 0.06 0.06 0.07 0.07 0.06 0.08 0.08 0.09 0.10 0.10 0.10 0.07 0.05 0.05 0.04 0.04 0.06 0.07 0.08 0.06 0.06 0.08 0.09 0.11
0.04 0.05 0.09 0.11 0.08 0.08 0.10 0.07 0.06 0.07 0.09 0.12 0.13 0.11 0.09 0.08 0.07 0.07 0.05 0.06 0.07 0.08 0.08 0.08 0.10 0.15 0.16 0.16 0.12 0.10 0.08 0.06 0.06 0.05 0.04 0.04 0.03 0.05 0.04 0.06 0.10 0.10 0.10
0.04 0.05 0.10 0.11 0.12 0.14 0.13 0.10 0.09 0.09 0.12 0.19 0.27 0.19 0.12 0.11 0.10 0.09 0.06 0.05 0.07 0.08 0.08 0.11 0.16 0.13 0.10 0.10 0.08 0.08 0.08 0.08 0.08 0.05 0.03 0.03 0.03 0.04 0.04 0.08 0.10 0.11 0.09
0.04 0.04 0.08 0.11 0.13 0.16 0.13 0.10 0.12 0.14 0.17 0.22 0.36 0.28 0.14 0.10 0.07 0.06 0.05 0.04 0.06 0.08 0.08 0.08 0.07 0.05 0.06 0.08 0.07 0.08 0.10 0.11 0.10 0.06 0.05 0.04 0.02 0.03 0.04 0.06 0.07 0.07 0.08
0.04 0.04 0.05 0.11 0.15 0.14 0.11 0.09 0.10 0.14 0.13 0.15 0.24 0.17 0.12 0.09 0.08 0.08 0.08 0.04 0.04 0.05 0.05 0.05 0.04 0.06 0.07 0.09 0.08 0.07 0.09 0.11 0.08 0.06 0.05 0.04 0.02 0.03 0.04 0.06 0.08 0.07 0.08
0.04 0.04 0.04 0.09 0.15 0.13 0.12 0.13 0.12 0.10 0.11 0.12 0.11 0.11 0.11 0.09 0.09 0.09 0.09 0.06 0.07 0.06 0.05 0.06 0.05 0.05 0.06 0.07 0.08 0.09 0.10 0.10 0.05 0.06 0.05 0.04 0.03 0.05 0.06 0.06 0.08 0.08 0.07
0.06 0.05 0.05 0.06 0.11 0.11 0.11 0.12 0.14 0.12 0.11 0.11 0.09 0.11 0.09 0.10 0.09 0.09 0.09 0.08 0.08 0.07 0.06 0.06 0.07 0.06 0.06 0.06 0.08 0.11 0.15 0.11 0.06 0.05 0.04 0.04 0.06 0.08 0.08 0.08 0.08 0.08 0.08
0.08 0.06 0.04 0.07 0.08 0.09 0.13 0.10 0.12 0.14 0.13 0.11 0.10 0.12 0.12 0.09 0.08 0.07 0.08 0.09 0.10 0.09 0.08 0.07 0.06 0.06 0.06 0.07 0.09 0.11 0.15 0.12 0.07 0.06 0.06 0.07 0.07 0.08 0.10 0.10 0.11 0.11 0.10
0.07 0.06 0.04 0.09 0.09 0.13 0.17 0.12 0.12 0.14 0.16 0.15 0.14 0.14 0.12 0.09 0.07 0.04 0.06 0.09 0.09 0.08 0.07 0.07 0.06 0.07 0.09 0.12 0.14 0.15 0.16 0.11 0.08 0.06 0.08 0.08 0.07 0.08 0.12 0.12 0.14 0.15 0.13
0.09 0.09 0.06 0.08 0.09 0.18 0.23 0.16 0.14 0.11 0.11 0.11 0.08 0.10 0.07 0.05 0.04 0.03 0.05 0.08 0.08 0.06 0.06 0.07 0.07 0.08 0.10 0.14 0.18 0.20 0.14 0.08 0.06 0.05 0.08 0.10 0.10 0.11 0.12 0.10 0.08 0.09 0.09
0.06 0.08 0.08 0.07 0.10 0.15 0.14 0.14 0.10 0.07 0.06 0.08 0.07 0.07 0.04 0.03 0.03 0.03 0.04 0.07 0.05 0.05 0.06 0.07 0.08 0.07 0.09 0.14 0.20 0.18 0.09 0.05 0.06 0.08 0.09 0.12 0.12 0.13 0.12 0.10 0.08 0.08 0.08
0.03 0.06 0.08 0.10 0.13 0.10 0.06 0.05 0.04 0.03 0.06 0.08 0.07 0.05 0.03 0.02 0.02 0.02 0.02 0.05 0.03 0.03 0.05 0.06 0.07 0.07 0.10 0.12 0.15 0.11 0.07 0.07 0.07 0.05 0.09 0.11 0.13 0.13 0.11 0.09 0.07 0.07 0.08
0.03 0.05 0.08 0.11 0.10 0.08 0.06 0.05 0.03 0.04 0.07 0.10 0.07 0.06 0.03 0.02 0.02 0.02 0.02 0.02 0.02 0.02 0.03 0.06 0.09 0.09 0.12 0.14 0.13 0.09 0.07 0.07 0.06 0.04 0.05 0.08 0.11 0.11 0.10 0.10 0.08 0.08 0.08
0.03 0.05 0.09 0.09 0.07 0.08 0.08 0.06 0.04 0.06 0.08 0.08 0.07 0.08 0.05 0.05 0.05 0.04 0.03 0.02 0.02 0.02 0.03 0.04 0.06 0.08 0.11 0.13 0.13 0.11 0.08 0.06 0.04 0.04 0.03 0.06 0.09 0.11 0.11 0.11 0.11 0.11 0.09
0.03 0.06 0.09 0.08 0.09 0.13 0.11 0.05 0.05 0.07 0.07 0.06 0.06 0.05 0.04 0.05 0.05 0.06 0.05 0.05 0.03 0.03 0.03 0.04 0.05 0.05 0.08 0.12 0.14 0.12 0.09 0.06 0.04 0.04 0.04 0.04 0.06 0.09 0.11 0.12 0.12 0.12 0.11
0.02 0.03 0.07 0.07 0.09 0.14 0.15 0.09 0.07 0.05 0.04 0.04 0.04 0.04 0.05 0.06 0.06 0.06 0.06 0.06 0.06 0.06 0.06 0.06 0.07 0.08 0.09 0.09 0.10 0.08 0.07 0.05 0.04 0.04 0.03 0.04 0.05 0.06 0.08 0.12 0.14 0.13 0.14
0.01 0.02 0.04 0.06 0.07 0.09 0.09 0.07 0.05 0.03 0.02 0.02 0.02 0.03 0.05 0.06 0.06 0.04 0.04 0.04 0.05 0.06 0.07 0.08 0.09 0.09 0.07 0.06 0.06 0.06 0.05 0.04 0.03 0.03 0.03 0.03 0.04 0.04 0.04 0.06 0.11 0.14 0.16
0.01 0.02 0.03 0.04 0.05 0.05 0.04 0.03 0.03 0.02 0.02 0.02 0.01 0.01 0.03 0.03 0.04 0.04 0.05 0.05 0.05 0.05 0.05 0.06 0.06 0.06 0.05 0.05 0.03 0.03 0.03 0.02 0.02 0.02 0.03 0.03 0.03 0.04 0.03 0.04 0.05 0.07 0.10
0.01 0.01 0.02 0.03 0.05 0.04 0.03 0.03 0.02 0.02 0.02 0.02 0.02 0.01 0.02 0.03 0.04 0.04 0.03 0.02 0.02 0.02 0.03 0.04 0.05 0.05 0.05 0.04 0.03 0.02 0.02 0.01 0.02 0.02 0.03 0.03 0.03 0.03 0.04 0.05 0.05 0.04 0.05
0.01 0.01 0.01 0.02 0.04 0.04 0.03 0.03 0.01 0.01 0.01 0.02 0.02 0.02 0.02 0.02 0.02 0.02 0.02 0.02 0.02 0.02 0.02 0.02 0.03 0.03 0.04 0.04 0.03 0.03 0.02 0.02 0.01 0.01 0.02 0.04 0.05 0.05 0.05 0.06 0.05 0.05 0.05
0.01 0.01 0.01 0.01 0.02 0.02 0.02 0.02 0.01 0.01 0.02 0.02 0.03 0.02 0.02 0.02 0.02 0.02 0.02 0.02 0.01 0.01 0.01 0.01 0.02 0.02 0.03 0.03 0.02 0.03 0.02 0.02 0.02 0.02 0.02 0.03 0.04 0.04 0.04 0.05 0.04 0.04 0.05
0.01 0.01 0.01 0.01 0.01 0.01 0.01 0.01 0.01 0.02 0.02 0.03 0.04 0.01 0.02 0.02 0.01 0.01 0.01 0.01 0.01 0.01 0.01 0.01 0.02 0.02 0.03 0.04 0.03 0.02 0.02 0.03 0.04 0.03 0.02 0.02 0.02 0.02 0.02 0.02 0.03 0.04 0.05
0.01 0.01 0.01 0.01 0.01 0.01 0.01 0.01 0.03 0.04 0.03 0.03 0.02 0.01 0.02 0.01 0.01 0.01 0.00 0.01 0.01 0.01 0.02 0.02 0.02 0.03 0.02 0.04 0.05 0.04 0.04 0.05 0.04 0.04 0.02 0.02 0.02 0.02 0.02 0.03 0.03 0.04 0.05
0.01 0.01 0.01 0.01 0.01 0.01 0.01 0.04 0.08 0.08 0.04 0.02 0.02 0.01 0.01 0.01 0.00 0.00 0.00 0.01 0.01 0.02 0.02 0.03 0.03 0.03 0.04 0.05 0.05 0.05 0.06 0.06 0.05 0.03 0.02 0.02 0.02 0.01 0.02 0.03 0.03 0.05 0.04
MSLP
1007.73 1007.06 1006.65 1006.51 1006.59 1006.78 1007.00 1007.14 1007.15 1007.01 1006.73 1006.39 1006.05 1005.77 1005.60 1005.54 1005.57 1005.64 1005.70 1005.69 1005.58 1005.37 1005.07 1004.72 1004.36 1004.02 1003.72 1003.49 1003.31 1003.19 1003.13 1003.13 1003.19 1003.32 1003.52 1003.79 1004.10 1004.44 1004.78 1005.10 1005.41 1005.71 1006.04
1007.67 1007.09 1006.74 1006.63 1006.70 1006.87 1007.05 1007.14 1007.11 1006.93 1006.64 1006.31 1006.00 1005.76 1005.63 1005.61 1005.65 1005.71 1005.72 1005.63 1005.44 1005.13 1004.74 1004.31 1003.88 1003.50 1003.19 1002.95 1002.77 1002.66 1002.61 1002.61 1002.66 1002.79 1002.98 1003.24 1003.56 1003.90 1004.25 1004.58 1004.89 1005.19 1005.51
1007.48 1007.01 1006.75 1006.70 1006.80 1006.97 1007.12 1007.19 1007.12 1006.91 1006.62 1006.29 1005.99 1005.78 1005.67 1005.64 1005.67 1005.67 1005.61 1005.44 1005.14 1004.74 1004.27 1003.78 1003.34 1002.96 1002.67 1002.47 1002.33 1002.24 1002.18 1002.14 1002.14 1002.19 1002.31 1002.50 1002.77 1003.09 1003.46 1003.84 1004.21 1004.58 1004.94
1007.21 1006.87 1006.72 1006.75 1006.91 1007.10 1007.24 1007.28 1007.18 1006.95 1006.64 1006.30 1006.00 1005.79 1005.67 1005.62 1005.60 1005.54 1005.39 1005.11 1004.72 1004.23 1003.71 1003.21 1002.78 1002.45 1002.22 1002.07 1001.97 1001.87 1001.75 1001.61 1001.46 1001.33 1001.27 1001.31 1001.48 1001.77 1002.16 1002.64 1003.16 1003.69 1004.21
1006.95 1006.75 1006.72 1006.84 1007.04 1007.26 1007.40 1007.42 1007.29 1007.03 1006.68 1006.32 1006.01 1005.78 1005.64 1005.55 1005.47 1005.33 1005.09 1004.72 1004.25 1003.70 1003.16 1002.67 1002.28 1002.01 1001.85 1001.75 1001.65 1001.49 1001.23 1000.88 1000.46 1000.03 999.68 999.47 999.48 999.71 1000.16 1000.79 1001.55 1002.36 1003.17
1006.78 1006.71 1006.78 1006.97 1007.22 1007.44 1007.57 1007.55 1007.38 1007.08 1006.71 1006.33 1006.00 1005.75 1005.59 1005.46 1005.32 1005.12 1004.80 1004.36 1003.82 1003.24 1002.69 1002.22 1001.89 1001.69 1001.58 1001.48 1001.32 1001.01 1000.52 999.83 999.02 998.18 997.43 996.90 996.68 996.83 997.36 998.21 999.30 1000.51 1001.73
1006.78 1006.78 1006.92 1007.16 1007.42 1007.62 1007.72 1007.65 1007.44 1007.10 1006.70 1006.30 1005.96 1005.71 1005.53 1005.39 1005.22 1004.96 1004.59 1004.10 1003.52 1002.92 1002.37 1001.94 1001.64 1001.48 1001.38 1001.23 1000.94 1000.40 999.57 998.47 997.17 995.82 994.60 993.68 993.21 993.28 993.90 995.01 996.49 998.17 999.90
1006.93 1006.97 1007.14 1007.37 1007.61 1007.78 1007.81 1007.70 1007.43 1007.06 1006.64 1006.25 1005.92 1005.69 1005.52 1005.38 1005.20 1004.93 1004.52 1003.99 1003.39 1002.78 1002.23 1001.82 1001.54 1001.38 1001.23 1000.99 1000.50 999.68 998.47 996.89 995.06 993.17 991.46 990.14 989.41 989.40 990.11 991.49 993.38 995.56 997.82
1007.19 1007.23 1007.38 1007.58 1007.77 1007.87 1007.85 1007.67 1007.37 1006.97 1006.56 1006.19 1005.91 1005.71 1005.58 1005.47 1005.30 1005.02 1004.60 1004.06 1003.44 1002.82 1002.27 1001.84 1001.56 1001.36 1001.14 1000.75 1000.05 998.93 997.34 995.32 993.00 990.63 988.46 986.78 985.83 985.73 986.53 988.14 990.39 993.03 995.76
1007.48 1007.49 1007.59 1007.74 1007.86 1007.90 1007.81 1007.60 1007.27 1006.89 1006.50 1006.18 1005.94 1005.80 1005.72 1005.64 1005.49 1005.22 1004.80 1004.25 1003.62 1002.98 1002.41 1001.97 1001.65 1001.39 1001.08 1000.55 999.67 998.30 996.41 994.04 991.36 988.61 986.11 984.17 983.03 982.87 983.72 985.49 988.00 990.95 994.04
1007.71 1007.68 1007.73 1007.81 1007.87 1007.86 1007.74 1007.51 1007.19 1006.83 1006.49 1006.23 1006.05 1005.96 1005.93 1005.88 1005.75 1005.48 1005.06 1004.50 1003.85 1003.20 1002.61 1002.13 1001.76 1001.45 1001.06 1000.44 999.43 997.92 995.86 993.31 990.44 987.51 984.84 982.76 981.53 981.31 982.17 984.00 986.61 989.70 992.95
1007.81 1007.74 1007.75 1007.79 1007.81 1007.77 1007.64 1007.42 1007.14 1006.83 1006.55 1006.35 1006.23 1006.18 1006.17 1006.14 1006.01 1005.75 1005.32 1004.75 1004.09 1003.42 1002.80 1002.29 1001.88 1001.52 1001.08 1000.42 999.39 997.87 995.82 993.29 990.45 987.54 984.90 982.82 981.58 981.33 982.14 983.91 986.45 989.47 992.65
1007.77 1007.67 1007.65 1007.67 1007.68 1007.65 1007.54 1007.37 1007.14 1006.90 1006.68 1006.53 1006.44 1006.42 1006.41 1006.37 1006.24 1005.96 1005.53 1004.95 1004.28 1003.59 1002.95 1002.42 1001.98 1001.59 1001.16 1000.53 999.57 998.17 996.29 993.98 991.37 988.70 986.26 984.33 983.16 982.91 983.63 985.22 987.53 990.28 993.19
1007.59 1007.49 1007.46 1007.48 1007.51 1007.51 1007.45 1007.34 1007.19 1007.02 1006.86 1006.74 1006.67 1006.65 1006.62 1006.55 1006.39 1006.10 1005.66 1005.08 1004.42 1003.73 1003.09 1002.53 1002.08 1001.69 1001.28 1000.74 999.93 998.76 997.18 995.23 993.03 990.75 988.66 987.00 985.98 985.75 986.33 987.67 989.62 991.95 994.41
1007.35 1007.25 1007.22 1007.26 1007.32 1007.37 1007.39 1007.35 1007.28 1007.18 1007.06 1006.97 1006.90 1006.84 1006.78 1006.68 1006.49 1006.19 1005.75 1005.19 1004.55 1003.88 1003.24 1002.67 1002.21 1001.83 1001.46 1001.02 1000.39 999.50 998.30 996.80 995.08 993.30 991.65 990.33 989.51 989.30 989.75 990.79 992.32 994.15 996.07
1007.11 1007.01 1007.00 1007.06 1007.16 1007.27 1007.35 1007.40 1007.40 1007.35 1007.28 1007.19 1007.11 1007.02 1006.92 1006.78 1006.57 1006.27 1005.85 1005.33 1004.73 1004.09 1003.47 1002.91 1002.43 1002.04 1001.70 1001.34 1000.88 1000.25 999.42 998.37 997.15 995.88 994.69 993.73 993.12 992.96 993.28 994.03 995.14 996.46 997.84
1006.97 1006.86 1006.86 1006.93 1007.06 1007.22 1007.37 1007.48 1007.55 1007.56 1007.52 1007.44 1007.34 1007.22 1007.08 1006.92 1006.71 1006.43 1006.05 1005.59 1005.05 1004.46 1003.85 1003.29 1002.79 1002.36 1002.01 1001.68 1001.34 1000.91 1000.38 999.71 998.93 998.11 997.33 996.69 996.29 996.19 996.40 996.90 997.64 998.51 999.43
1006.97 1006.85 1006.84 1006.91 1007.06 1007.26 1007.46 1007.64 1007.76 1007.82 1007.82 1007.75 1007.64 1007.50 1007.35 1007.18 1006.98 1006.74 1006.42 1006.03 1005.56 1005.02 1004.44 1003.86 1003.32 1002.84 1002.43 1002.08 1001.77 1001.45 1001.10 1000.70 1000.24 999.76 999.30 998.92 998.69 998.63 998.76 999.08 999.54 1000.08 1000.65
1007.14 1007.02 1006.98 1007.05 1007.21 1007.42 1007.66 1007.89 1008.07 1008.19 1008.22 1008.18 1008.07 1007.94 1007.79 1007.63 1007.46 1007.26 1007.01 1006.69 1006.29 1005.80 1005.24 1004.65 1004.05 1003.50 1003.00 1002.58 1002.22 1001.92 1001.64 1001.37 1001.10 1000.83 1000.57 1000.36 1000.23 1000.20 1000.28 1000.47 1000.75 1001.08 1001.43
1007.50 1007.36 1007.31 1007.36 1007.51 1007.74 1008.01 1008.29 1008.53 1008.70 1008.78 1008.77 1008.70 1008.58 1008.44 1008.30 1008.16 1008.00 1007.81 1007.55 1007.21 1006.77 1006.23 1005.63 1004.98 1004.35 1003.75 1003.22 1002.78 1002.42 1002.13 1001.88 1001.66 1001.47 1001.30 1001.16 1001.06 1001.03 1001.07 1001.18 1001.35 1001.57 1001.82
1008.02 1007.87 1007.80 1007.84 1007.99 1008.23 1008.53 1008.85 1009.15 1009.38 1009.52 1009.57 1009.53 1009.44 1009.32 1009.20 1009.07 1008.95 1008.79 1008.57 1008.27 1007.87 1007.35 1006.74 1006.07 1005.37 1004.69 1004.07 1003.53 1003.08 1002.71 1002.40 1002.15 1001.93 1001.75 1001.59 1001.46 1001.39 1001.38 1001.43 1001.55 1001.72 1001.94
1008.66 1008.53 1008.46 1008.49 1008.63 1008.88 1009.21 1009.58 1009.93 1010.23 1010.43 1010.54 1010.55 1010.49 1010.39 1010.26 1010.14 1010.01 1009.86 1009.66 1009.38 1009.00 1008.51 1007.91 1007.24 1006.53 1005.81 1005.13 1004.52 1003.98 1003.52 1003.12 1002.78 1002.47 1002.20 1001.95 1001.75 1001.59 1001.51 1001.49 1001.56 1001.70 1001.92
1009.41 1009.31 1009.25 1009.28 1009.43 1009.68 1010.03 1010.43 1010.84 1011.20 1011.47 1011.63 1011.68 1011.64 1011.55 1011.41 1011.27 1011.11 1010.94 1010.72 1010.44 1010.08 1009.61 1009.05 1008.42 1007.73 1007.03 1006.35 1005.71 1005.13 1004.60 1004.12 1003.68 1003.26 1002.86 1002.49 1002.16 1001.89 1001.69 1001.59 1001.58 1001.68 1001.87
1010.23 1010.17 1010.14 1010.18 1010.32 1010.58 1010.94 1011.37 1011.81 1012.22 1012.54 1012.74 1012.83 1012.81 1012.70 1012.54 1012.35 1012.15 1011.92 1011.67 1011.38 1011.02 1010.59 1010.08 1009.51 1008.90 1008.27 1007.64 1007.03 1006.46 1005.90 1005.37 1004.84 1004.31 1003.79 1003.29 1002.82 1002.40 1002.07 1001.84 1001.73 1001.74 1001.86
1011.11 1011.10 1011.09 1011.13 1011.27 1011.52 1011.88 1012.31 1012.78 1013.21 1013.56 1013.80 1013.90 1013.88 1013.76 1013.57 1013.32 1013.06 1012.77 1012.47 1012.15 1011.79 1011.39 1010.94 1010.45 1009.94 1009.41 1008.87 1008.34 1007.81 1007.27 1006.72 1006.14 1005.53 1004.91 1004.28 1003.68 1003.12 1002.65 1002.27 1002.02 1001.90 1001.90
1012.03 1012.06 1012.07 1012.11 1012.23 1012.46 1012.80 1013.21 1013.67 1014.10 1014.47 1014.71 1014.82 1014.80 1014.66 1014.43 1014.14 1013.81 1013.47 1013.12 1012.76 1012.40 1012.02 1011.63 1011.22 1010.81 1010.38 1009.95 1009.50 1009.03 1008.53 1007.99 1007.39 1006.74 1006.04 1005.32 1004.61 1003.93 1003.32 1002.80 1002.40 1002.12 1001.97
Thickness
5798 5801 5801 5801 5801 5800 5798 5797 5796 5795 5794 5792 5791 5789 5789 5788 5787 5787 5786 5786 5785 5784 5784 5784 5783 5782 5781 5780 5779 5778 5777 5776 5775 5775 5774 5773 5772 5770 5769 5768 5768 5767 5766
5802 5803 5802 5802 5802 5801 5799 5797 5796 5795 5794 5792 5790 5789 5788 5787 5786 5786 5785 5785 5784 5783 5783 5783 5782 5781 5780 5779 5778 5777 5776 5775 5774 5774 5773 5772 5770 5769 5768 5768 5767 5766 5765
5803 5803 5802 5803 5802 5801 5799 5797 5796 5795 5793 5791 5789 5788 5787 5787 5786 5785 5784 5784 5784 5783 5782 5782 5781 5780 5779 5778 5777 5776 5775 5774 5773 5772 5771 5770 5769 5768 5768 5767 5767 5766 5764
5803 5802 5802 5802 5801 5799 5797 5796 5795 5794 5793 5791 5789 5787 5786 5786 5784 5784 5784 5783 5783 5782 5781 5781 5780 5779 5778 5777 5776 5775 5774 5773 5771 5770 5769 5768 5768 5767 5767 5767 5766 5765 5764
5801 5800 5800 5800 5799 5797 5795 5794 5794 5793 5792 5790 5788 5786 5785 5785 5784 5783 5782 5782 5781 5781 5780 5780 5779 5779 5778 5777 5776 5775 5773 5772 5771 5769 5768 5767 5766 5766 5766 5765 5764 5764 5763
5799 5799 5800 5800 5798 5795 5794 5793 5792 5793 5792 5790 5787 5785 5784 5784 5783 5782 5782 5782 5781 5780 5779 5779 5778 5778 5777 5776 5775 5774 5772 5771 5770 5768 5767 5765 5765 5765 5764 5764 5763 5763 5762
5797 5798 5799 5799 5796 5794 5792 5791 5791 5791 5791 5789 5786 5785 5783 5782 5782 5781 5781 5781 5780 5779 5778 5778 5777 5776 5776 5775 5774 5773 5772 5770 5768 5767 5766 5765 5764 5764 5763 5763 5762 5762 5761
5796 5796 5796 5796 5794 5793 5791 5790 5789 5788 5787 5787 5786 5784 5783 5782 5781 5781 5780 5779 5779 5778 5777 5777 5776 5776 5775 5774 5773 5772 5771 5769 5767 5766 5765 5764 5764 5763 5763 5762 5762 5761 5760
5795 5794 5793 5793 5792 5791 5790 5789 5788 5787 5786 5785 5784 5783 5782 5781 5780 5780 5779 5779 5778 5777 5777 5776 5776 5775 5774 5774 5772 5771 5770 5769 5767 5765 5764 5764 5764 5763 5762 5761 5761 5760 5760
5793 5792 5792 5791 5790 5789 5789 5789 5787 5786 5785 5784 5783 5782 5781 5780 5779 5779 5778 5777 5777 5776 5776 5776 5775 5775 5774 5773 5772 5771 5770 5768 5767 5765 5764 5764 5763 5763 5762 5762 5761 5760 5759
5790 5790 5790 5789 5789 5788 5788 5787 5786 5785 5784 5782 5781 5780 5780 5779 5778 5777 5776 5776 5776 5776 5775 5775 5775 5774 5773 5772 5771 5770 5769 5767 5766 5765 5765 5765 5764 5764 5762 5761 5760 5759 5759
5787 5788 5789 5788 5788 5787 5786 5786 5784 5783 5782 5781 5780 5779 5778 5777 5777 5776 5775 5775 5775 5775 5774 5775 5774 5773 5772 5771 5769 5768 5767 5766 5765 5765 5764 5764 5764 5763 5762 5760 5759 5758 5757
5788 5788 5789 5788 5787 5786 5785 5784 5783 5782 5781 5780 5779 5778 5777 5776 5775 5774 5773 5773 5773 5773 5773 5773 5773 5772 5770 5769 5767 5766 5765 5765 5764 5764 5763 5763 5763 5762 5761 5759 5758 5757 5756
5788 5788 5788 5788 5786 5785 5784 5783 5782 5781 5780 5778 5778 5777 5776 5774 5773 5772 5772 5772 5772 5771 5771 5771 5771 5770 5768 5767 5765 5764 5763 5763 5763 5762 5761 5761 5761 5760 5759 5758 5757 5756 5755
5787 5788 5788 5788 5786 5785 5783 5782 5781 5780 5779 5778 5777 5776 5775 5774 5772 5771 5771 5771 5770 5770 5769 5769 5769 5768 5766 5765 5764 5763 5762 5761 5761 5761 5760 5760 5759 5758 5757 5756 5755 5754 5753
5788 5788 5788 5787 5786 5785 5782 5781 5780 5779 5778 5777 5776 5775 5774 5773 5772 5771 5770 5769 5769 5769 5768 5767 5767 5766 5764 5763 5762 5761 5760 5760 5759 5759 5758 5758 5758 5756 5755 5753 5752 5752 5751
5788 5788 5788 5787 5786 5784 5782 5780 5779 5778 5777 5776 5775 5774 5773 5772 5771 5770 5769 5768 5768 5768 5767 5766 5765 5764 5762 5761 5759 5759 5759 5758 5757 5757 5757 5756 5755 5754 5752 5751 5750 5750 5749
5789 5788 5788 5788 5785 5783 5781 5780 5778 5777 5776 5775 5774 5773 5772 5771 5770 5769 5768 5767 5767 5767 5766 5764 5763 5761 5759 5758 5756 5757 5757 5756 5755 5755 5754 5753 5752 5751 5750 5749 5748 5747 5747
5790 5788 5786 5785 5784 5782 5781 5779 5777 5776 5774 5774 5773 5772 5771 5770 5769 5768 5767 5766 5766 5765 5764 5763 5761 5759 5757 5756 5755 5754 5754 5753 5752 5752 5752 5750 5749 5748 5747 5746 5746 5745 5745
5790 5788 5786 5784 5783 5782 5780 5777 5776 5774 5773 5772 5771 5770 5769 5769 5768 5766 5765 5764 5764 5762 5761 5760 5758 5757 5755 5754 5753 5751 5750 5750 5750 5749 5748 5747 5746 5745 5743 5743 5742 5741 5741
5788 5786 5785 5783 5781 5779 5777 5774 5771 5769 5769 5768 5769 5768 5768 5767 5766 5765 5763 5762 5761 5760 5758 5757 5755 5753 5751 5751 5748 5745 5746 5747 5746 5745 5745 5743 5742 5741 5740 5739 5738 5737 5737
5787 5785 5784 5782 5781 5779 5776 5773 5771 5768 5766 5766 5766 5766 5766 5765 5764 5763 5761 5760 5759 5757 5756 5754 5752 5750 5748 5747 5743 5739 5735 5736 5739 5741 5740 5739 5738 5737 5736 5735 5734 5734 5733
5786 5784 5783 5781 5780 5778 5776 5773 5770 5766 5764 5763 5762 5762 5763 5762 5762 5761 5759 5758 5757 5755 5753 5752 5750 5747 5744 5743 5742 5737 5731 5727 5730 5733 5734 5734 5733 5732 5732 5732 5731 5730 5730
5786 5785 5782 5780 5778 5776 5775 5771 5767 5763 5759 5759 5759 5759 5760 5759 5759 5758 5757 5756 5754 5753 5751 5749 5747 5745 5742 5738 5737 5735 5733 5731 5725 5723 5727 5728 5728 5727 5727 5727 5727 5726 5725
5785 5783 5780 5778 5776 5774 5773 5770 5766 5761 5760 5759 5758 5757 5756 5756 5756 5755 5754 5753 5751 5749 5747 5746 5744 5741 5739 5735 5732 5730 5728 5726 5725 5720 5717 5719 5721 5722 5721 5721 5721 5721 5720
5784 5781 5779 5776 5773 5772 5770 5768 5765 5761 5759 5756 5754 5753 5752 5752 5752 5751 5750 5749 5748 5745 5744 5742 5740 5738 5735 5732 5730 5727 5725 5722 5719 5717 5713 5712 5712 5714 5715 5715 5715 5714 5714